Location: Praha
(50.0830°N, 14.4670°E)
Time: 15:34:36
(UTC+02:00)

ISS - Pass Details

Date: 26 May 2020
Orbit: 417 x 420 km, 51.6° (Epoch: 25 May)

Event Time Altitude Azimuth Distance (km) Brightness Sun altitude
Rises 23:56:31 0° 287° (WNW) 2,368 0.5 -17.4°
Reaches altitude 10° 23:58:43 10° 278° (W) 1,502 -0.7 -17.5°
Enters shadow 00:01:21 32° 230° (SW) 749 -2.7 -17.6°
